Regional Weather Roundup
Issued by NWS

Home | Current Version | Previous Version | Text Only | Print | Product List | Glossary On
Versions: 1 2 3 4 5 6 7 8 9 10 11 12 13 14 15 16 17 18 19 20 21 22 23 24 25 26 27
000
ASCA42 TJSJ 180610
RWRPR
PUERTO RICO/U.S. VIRGIN ISLANDS HOURLY WEATHER ROUNDUP
NATIONAL WEATHER SERVICE SAN JUAN PR
200 AM AST THU JAN 18 2018

PRZ001>002-007>008-010-180700-
PUERTO RICO

CITY           SKY/WX    TMP DP  RH WIND       PRES   REMARKS
SAN JUAN LMM   PTCLDY    75  73  94 CALM      30.01F
PONCE          CLEAR     70  70 100 CALM      30.05
AGUADILLA      CLEAR     72  68  88 SE5       30.03F
$$

VIZ001>002-180700-
U.S. VIRGIN ISLANDS

CITY           SKY/WX    TMP DP  RH WIND       PRES   REMARKS
CHARLOTTE AMA  CLEAR     75  73  94 CALM      30.01F
CHRISTIANSTED  PTCLDY    73  72  94 N6        30.01F
$$

HOURLY WEATHER ROUNDUP FOR THE NEWS MEDIA

CITY           SKY/WX    TMP DP  RH WIND       PRES   REMARKS
ORLANDO        FAIR      38  20  48 NW12      30.33S WCI  30
NEW YORK       FAIR      22  12  65 NW13      30.15F WCI  10
NEWARK         FAIR      20   9  62 NW13      30.15F WCI   7
CHICAGO        FAIR      18   9  68 W21G29    30.19F WCI   1
HARTFORD       CLOUDY    32  31  96 VRB5      30.00F WCI  27
BOSTON         CLOUDY    31  27  85 NW12      30.02F WCI  22
DALLAS         CLOUDY    26   8  46 S5        30.61F WCI  20
PHILADELPHIA   FAIR      20   8  60 W8        30.22F WCI  10
LOS ANGELES    CLEAR     62  57  83 CALM      30.12R
WASHINGTON DC  FAIR      16   6  65 NW10      30.27F WCI   4



USA.gov is the U.S. government's official web portal to all federal, state and local government web resources and services.